This is the latest recevied weather packets stored in our database for station/object KC4MCQ-10. If no packets are shown the sender has not sent any weather packets the latest 10 day(s).
| Time | Temp. | Humidity | Pressure | Rain* | Wind** | Luminosity | Snow |
|---|---|---|---|---|---|---|---|
| 1787903590 | 23.89° C | 91% | 1016 hPa | 0.51 mm | 0.89 m/s, 186° | - | - |
| 1787902984 | 23.89° C | 91% | 1015.9 hPa | 0.51 mm | 0.89 m/s, 205° | - | - |
| 1787902381 | 23.89° C | 91% | 1016 hPa | 0.51 mm | 0.45 m/s, 199° | - | - |
| 1787901779 | 23.89° C | 91% | 1016 hPa | 0.51 mm | 0.45 m/s, 199° | - | - |
| 1787901174 | 23.33° C | 91% | 1016.1 hPa | 0.51 mm | 0.89 m/s, 199° | - | - |
| 1787900571 | 23.33° C | 91% | 1016.2 hPa | 0.51 mm | 0 m/s | - | - |
| 1787899966 | 23.33° C | 91% | 1016.2 hPa | 0.51 mm | 0 m/s | - | - |
| 1787899363 | 23.33° C | 91% | 1016.2 hPa | 0.51 mm | 0 m/s | - | - |
| 1787898761 | 23.33° C | 91% | 1016.4 hPa | 0.51 mm | 0 m/s | - | - |
| 1787898158 | 23.33° C | 90% | 1016.3 hPa | 0.51 mm | 0.45 m/s, 144° | - | - |
| 1787897556 | 23.33° C | 90% | 1016.5 hPa | 0.51 mm | 0.45 m/s, 144° | - | - |
| 1787896953 | 23.33° C | 90% | 1016.8 hPa | 0.51 mm | 0 m/s | - | - |
| 1787896350 | 23.89° C | 90% | 1016.7 hPa | 0.51 mm | 0.89 m/s, 144° | - | - |
| 1787895748 | 23.89° C | 89% | 1017 hPa | 0.51 mm | 0 m/s | - | - |
| 1787895144 | 23.89° C | 88% | 1017.1 hPa | 0.51 mm | 0.45 m/s, 144° | - | - |
| 1787894541 | 24.44° C | 88% | 1017 hPa | 0.51 mm | 0 m/s | - | - |
| 1787893939 | 24.44° C | 88% | 1017.1 hPa | 0.51 mm | 0 m/s | - | - |
| 1787893334 | 24.44° C | 88% | 1017.1 hPa | 0.51 mm | 0.45 m/s, 140° | - | - |
| 1787892731 | 24.44° C | 88% | 1017.3 hPa | 0.51 mm | 0.45 m/s, 140° | - | - |
| 1787892128 | 24.44° C | 87% | 1017.1 hPa | 0.51 mm | 0.45 m/s, 165° | - | - |
| 1787891524 | 25° C | 87% | 1017.2 hPa | 0.51 mm | 0.45 m/s, 199° | - | - |
| 1787890921 | 25° C | 86% | 1016.9 hPa | 0.51 mm | 0.45 m/s, 240° | - | - |
| 1787890319 | 25° C | 86% | 1017 hPa | 0.51 mm | 0.45 m/s, 248° | - | - |
| 1787889717 | 25° C | 86% | 1017.1 hPa | 0.51 mm | 0 m/s | - | - |
| 1787889108 | 25° C | 86% | 1016.8 hPa | 0.51 mm | 0.45 m/s, 172° | - | - |
* Rain latest 24 hours (hover to see other rain measurements)
** Current wind speed in m/s (hover to see current wind gust speed)